Wind_Speed
20 21 21 21 22 23 22 20 20 20 21 22 22 23 23 24 24 24 22 21 20 20 20 19 18 18 17 17 16 15 15 14 13 13 13 13 12 11 11 10 10 9 8 7 7 7 6 5 5
20 21 22 23 24 24 23 22 22 22 23 24 24 25 26 26 26 26 25 23 23 23 22 21 21 20 19 19 18 18 17 16 15 14 14 14 14 13 12 11 11 10 9 9 8 8 7 7 6
21 22 24 25 26 25 24 25 25 25 25 26 26 27 27 28 28 27 27 26 25 25 24 24 23 22 21 21 20 19 19 18 17 16 16 15 15 14 14 13 12 11 11 10 9 9 8 8 7
23 24 25 26 26 26 26 26 26 26 27 27 27 28 28 28 28 28 28 28 27 27 27 26 25 24 23 23 22 21 21 20 19 18 17 16 16 16 15 14 13 13 12 12 11 10 10 9 8
25 26 27 27 27 26 27 28 29 28 28 28 29 29 30 29 29 29 30 30 29 29 29 28 27 26 25 25 24 23 23 22 21 20 19 18 17 17 17 15 15 14 14 13 12 12 11 11 10
26 27 28 28 29 28 29 29 31 30 30 30 31 31 31 31 30 30 31 32 32 31 31 31 30 28 28 27 26 25 25 24 23 22 21 20 19 19 18 17 16 15 15 14 14 13 13 12 11
28 29 30 30 30 30 30 31 33 32 32 32 32 32 31 32 31 31 31 32 33 33 33 33 32 31 30 29 28 28 27 26 25 24 23 22 21 20 20 19 18 17 16 16 16 15 14 13 13
29 30 31 31 31 30 31 32 33 33 33 33 33 33 33 33 33 32 32 33 34 35 35 35 34 33 33 32 31 30 29 28 27 26 25 24 23 23 21 20 20 19 18 17 17 16 16 15 14
30 31 31 31 31 31 32 33 34 34 34 34 34 34 35 34 34 35 34 35 35 35 36 37 35 34 34 34 33 32 31 30 29 28 27 26 26 25 24 22 21 21 20 19 18 18 17 16 16
31 31 31 31 32 33 33 33 34 35 35 34 34 35 36 36 36 36 36 36 36 36 36 37 36 36 36 36 35 34 34 32 31 30 29 28 27 27 26 24 23 22 21 21 20 19 19 18 17
32 32 32 32 34 35 35 34 35 36 36 35 35 35 38 38 38 38 37 37 37 37 37 37 37 37 38 37 37 37 36 35 33 32 30 29 28 28 27 26 25 24 23 22 21 20 20 19 19
33 33 34 34 35 36 36 36 37 37 36 36 37 36 38 39 39 38 38 38 38 38 38 38 38 37 38 39 39 38 38 37 35 34 32 31 30 29 29 28 27 26 25 24 23 22 21 21 21
35 35 35 36 36 37 37 37 37 36 36 37 37 38 38 40 39 39 38 38 38 39 40 40 39 39 39 40 40 39 39 39 38 36 35 34 33 31 30 30 29 28 27 26 25 24 23 22 22
36 36 36 36 37 38 38 38 37 36 36 37 38 38 38 39 39 39 39 39 39 40 41 42 42 41 40 41 41 41 40 40 39 39 38 36 35 34 32 31 31 30 29 28 27 26 25 24 23
36 36 36 36 37 38 39 38 36 36 37 37 37 37 37 38 38 38 39 39 38 39 41 42 43 43 42 42 42 42 42 41 40 40 40 38 36 35 34 33 32 32 30 29 29 28 27 26 25
35 36 36 36 37 37 38 37 35 36 36 36 36 36 36 37 37 37 37 38 38 40 41 42 43 44 43 43 44 44 44 43 42 41 41 40 39 38 36 35 34 33 33 31 30 30 29 29 27
35 36 36 36 36 37 38 37 36 36 36 36 36 35 36 37 37 37 36 37 39 39 41 42 43 44 44 44 45 45 45 44 44 43 42 42 41 40 39 37 36 36 35 34 33 32 31 30 30
35 36 36 36 35 36 37 37 36 36 36 35 36 37 37 37 37 37 36 38 38 39 40 42 42 43 44 45 46 46 46 46 45 45 44 43 43 42 41 39 38 37 37 36 35 34 33 33 32
35 36 36 36 35 35 36 36 36 35 35 35 36 37 36 36 37 37 37 37 38 39 40 41 41 42 44 45 46 46 47 47 47 46 45 44 44 43 42 41 39 38 38 38 37 36 36 35 34
35 36 36 35 34 34 36 35 35 35 36 36 36 36 36 36 37 37 38 37 38 39 39 40 41 42 43 45 46 47 47 47 48 47 46 45 45 45 44 43 41 39 38 39 38 38 38 37 36
34 35 35 34 34 34 36 35 34 34 34 35 36 36 36 36 37 37 37 37 38 39 39 40 41 42 43 44 45 47 48 48 48 48 47 46 46 46 46 44 43 42 41 40 40 40 40 39 38
34 34 34 34 34 33 33 34 32 33 33 34 33 34 34 36 37 37 37 38 39 40 40 40 41 42 42 43 45 46 48 49 48 48 48 47 48 47 47 46 44 42 42 41 40 40 41 40 40
33 33 33 33 32 31 31 34 32 33 33 32 32 32 32 34 36 38 38 39 40 40 41 41 42 42 43 43 44 46 48 49 49 49 49 49 49 49 48 47 47 45 43 42 42 41 41 41 41
33 32 32 32 31 32 30 32 32 32 31 31 31 32 33 33 34 35 37 37 39 40 40 41 42 42 43 44 44 46 47 49 50 50 51 50 50 50 49 49 47 47 45 44 43 42 42 41 41
31 31 31 31 31 32 30 32 31 31 31 30 31 32 33 33 33 34 35 36 37 39 40 41 41 42 44 44 44 46 47 49 50 50 51 51 51 51 50 50 49 47 45 45 44 43 42 42 42
29 29 30 31 32 31 30 31 31 31 30 30 31 31 32 33 33 34 35 36 37 38 39 40 41 42 43 45 44 46 48 49 50 50 50 51 51 51 51 50 50 49 47 46 47 47 45 44 43
30 29 30 30 31 32 31 30 31 30 30 30 31 31 31 32 33 34 35 35 36 37 38 39 40 41 43 44 45 45 48 50 51 51 50 51 51 51 51 51 51 50 49 48 47 48 47 46 45
30 31 30 29 30 31 32 30 30 30 30 31 31 31 32 32 32 33 33 34 35 35 36 37 38 39 41 43 45 45 46 48 51 52 51 51 51 51 51 52 52 50 50 49 48 48 47 48 47
31 30 30 30 30 31 32 30 29 30 31 31 31 31 31 32 33 32 33 33 33 34 35 36 37 38 40 42 43 45 45 47 49 51 52 52 51 51 52 52 52 51 51 50 49 49 48 47 48
31 30 30 31 31 31 32 31 28 29 30 30 31 31 31 31 32 32 33 33 34 34 34 35 37 38 39 40 42 42 44 45 47 49 51 52 52 52 51 51 52 52 51 51 50 49 49 49 49
Wind_Direction
264 264 263 262 262 262 264 266 265 262 260 257 257 257 256 257 256 257 258 256 254 252 250 247 245 243 242 241 239 236 232 231 230 228 224 221 220 217 214 214 214 215 211 207 205 203 202 199 197
265 265 264 264 264 264 265 267 266 264 261 259 258 258 257 257 257 258 258 257 254 251 249 247 245 242 241 241 239 238 235 233 233 232 229 227 225 222 220 220 218 218 217 215 216 216 214 209 210
266 266 266 265 265 267 268 267 267 265 262 261 260 259 259 258 258 258 258 256 253 250 247 245 244 242 241 240 239 239 237 235 234 233 232 230 229 228 226 226 225 224 224 222 221 223 223 217 217
268 267 267 267 267 268 267 266 265 264 263 262 261 261 260 260 259 257 256 255 252 248 246 244 242 241 240 239 239 238 237 235 235 234 235 234 232 230 229 230 233 232 230 229 228 227 228 227 224
269 269 268 268 269 268 267 265 264 263 262 262 262 262 263 260 259 257 255 254 251 248 245 244 242 240 239 238 238 238 237 237 236 235 235 236 235 232 230 232 235 236 233 231 231 229 230 230 230
271 270 270 271 271 269 267 266 265 264 263 262 262 262 262 260 258 257 255 253 251 247 244 243 242 241 239 238 236 237 237 237 237 236 236 236 236 235 234 235 236 236 235 233 232 232 231 231 231
272 272 272 272 272 270 268 267 265 265 263 262 263 262 262 261 259 258 257 254 251 248 245 243 241 240 240 239 237 236 237 237 237 237 237 237 236 236 236 236 237 238 238 237 235 235 234 233 233
274 273 272 272 272 271 269 267 265 264 264 263 263 262 261 261 259 258 256 255 252 247 245 243 241 240 239 239 238 238 237 237 236 236 238 238 237 237 237 237 237 239 239 240 238 236 236 236 235
275 274 274 274 273 272 270 268 266 265 264 263 263 262 261 262 260 258 257 255 252 248 245 243 243 240 238 238 238 238 237 237 237 237 238 238 238 238 238 237 238 239 240 240 239 237 236 237 236
276 276 276 275 273 272 271 268 267 266 264 264 264 263 262 261 260 259 257 255 252 248 245 243 243 240 238 238 237 237 237 236 237 237 238 239 239 238 239 238 237 238 238 239 240 239 237 237 237
278 276 275 274 274 273 272 270 268 267 264 264 264 263 262 260 259 258 257 255 251 247 244 243 242 241 239 237 237 237 237 236 237 238 238 239 240 239 238 237 237 237 238 239 240 240 240 238 237
279 276 275 274 274 274 273 271 270 269 266 264 263 262 261 260 258 257 255 253 251 247 244 243 242 241 240 238 237 237 237 236 237 238 238 238 239 239 239 238 237 237 238 239 239 239 241 240 239
279 277 275 274 274 275 274 272 271 269 267 265 263 261 261 260 258 254 254 253 251 248 245 244 242 241 241 239 237 237 237 236 237 238 238 237 237 238 240 240 239 239 239 240 240 240 241 242 241
281 277 276 275 275 275 276 273 271 269 268 267 266 263 261 259 256 253 252 253 251 248 247 245 243 242 241 240 239 237 237 237 237 237 237 238 238 238 239 241 240 240 240 239 240 240 241 241 242
282 278 277 276 276 276 276 273 272 270 269 268 267 264 260 257 254 251 251 251 250 248 246 245 243 242 241 240 239 237 237 237 238 238 237 237 238 238 239 241 242 240 240 240 241 241 241 242 242
282 280 278 277 277 277 276 273 272 269 270 268 267 263 260 257 252 250 250 251 249 248 246 244 242 242 241 240 239 238 237 237 238 238 238 239 238 238 239 240 243 242 241 241 242 241 242 243 244
284 282 280 279 278 276 274 273 272 270 270 267 265 263 260 257 252 251 251 251 250 248 246 244 243 242 240 240 239 238 237 237 238 239 239 239 239 239 240 242 243 243 242 241 242 243 242 243 244
286 283 280 280 279 277 274 272 272 271 269 268 265 262 259 255 253 253 252 251 249 248 246 244 243 242 241 240 239 238 237 237 237 238 240 239 239 240 241 242 243 243 242 242 242 243 244 244 244
287 285 282 281 280 278 275 273 271 270 269 268 267 263 259 254 254 254 254 252 249 248 246 244 243 242 241 240 239 238 237 237 237 238 240 240 239 240 240 242 243 244 243 242 242 243 244 244 245
288 285 283 281 280 278 276 273 271 271 270 268 267 264 258 255 255 254 254 253 251 250 248 245 244 243 242 240 239 238 238 237 238 239 240 241 241 240 240 242 242 242 242 242 242 242 244 244 245
287 287 285 283 280 279 278 275 272 272 272 270 267 263 259 257 255 255 254 253 251 250 249 247 245 244 243 242 241 239 238 238 238 239 239 240 241 241 240 241 240 242 243 243 243 243 244 245 245
288 288 286 283 280 281 281 278 274 274 273 270 267 265 260 257 255 255 254 253 252 250 249 248 247 245 244 243 243 241 239 238 238 238 239 239 240 241 240 239 240 242 244 244 244 244 244 245 245
289 289 287 283 280 282 282 281 279 278 276 272 270 266 263 260 256 255 254 253 252 250 249 249 247 246 245 245 245 243 241 239 238 238 238 239 240 240 239 240 242 243 245 245 245 244 244 246 246
290 289 287 283 280 281 281 281 281 281 279 273 269 265 263 261 259 257 255 255 254 252 251 249 248 247 246 246 245 243 241 240 238 238 238 238 239 240 239 240 242 244 245 245 243 244 244 245 245
290 290 288 285 282 281 282 283 282 281 279 275 270 267 264 263 261 260 258 256 253 252 252 250 250 248 247 246 246 243 242 241 240 239 238 238 239 240 240 240 242 245 245 244 244 244 244 245 245
288 290 290 287 284 283 285 285 284 281 279 276 272 268 267 265 263 263 262 258 254 253 253 250 249 248 248 248 247 244 242 241 240 239 238 239 239 240 240 240 242 243 245 246 246 245 244 244 245
288 289 290 287 284 283 285 285 281 280 278 275 272 270 269 267 266 265 263 259 256 254 254 251 249 247 247 247 246 246 244 242 241 239 238 238 239 239 240 241 242 243 246 246 246 245 245 245 246
288 288 288 286 287 288 286 287 285 282 279 274 273 272 272 270 269 268 264 261 258 256 254 252 252 251 249 247 246 246 246 243 241 239 238 239 240 240 240 240 241 242 245 245 245 245 246 246 246
287 286 284 283 285 288 288 287 286 284 282 278 275 274 272 272 270 269 267 262 259 257 255 254 252 251 250 249 248 247 244 242 241 240 239 240 240 239 239 239 240 241 243 245 246 246 245 246 247
284 284 284 282 283 285 284 284 285 284 282 280 278 275 274 273 271 271 268 263 259 256 254 254 253 253 253 251 249 247 244 242 242 241 241 241 240 240 240 240 241 241 243 245 245 245 245 245 247
Height
5814 5815 5816 5817 5818 5818 5818 5820 5821 5822 5823 5824 5825 5825 5826 5827 5828 5831 5831 5832 5833 5834 5835 5836 5837 5839 5840 5841 5842 5843 5843 5844 5845 5846 5847 5848 5849 5850 5850 5851 5852 5853 5854 5854 5855 5856 5857 5858 5858
5810 5811 5812 5812 5812 5813 5815 5816 5817 5818 5819 5820 5821 5821 5822 5822 5823 5825 5825 5827 5829 5830 5831 5833 5834 5835 5837 5838 5839 5840 5841 5842 5843 5844 5845 5846 5847 5848 5849 5850 5851 5852 5852 5853 5854 5855 5856 5857 5857
5806 5806 5807 5807 5807 5808 5810 5812 5812 5813 5814 5815 5816 5816 5817 5818 5819 5820 5820 5822 5824 5825 5827 5828 5830 5832 5833 5834 5836 5837 5838 5840 5841 5842 5843 5844 5845 5846 5847 5848 5849 5850 5851 5852 5853 5854 5855 5856 5856
5801 5802 5802 5802 5802 5804 5805 5806 5807 5807 5808 5809 5810 5811 5812 5813 5814 5815 5815 5816 5818 5820 5822 5823 5825 5827 5829 5831 5832 5834 5835 5837 5838 5839 5841 5842 5843 5844 5845 5846 5847 5848 5849 5851 5852 5853 5854 5854 5855
5796 5796 5796 5796 5797 5798 5799 5799 5799 5801 5802 5803 5804 5805 5806 5807 5807 5808 5809 5810 5812 5814 5816 5818 5820 5822 5824 5826 5828 5830 5831 5833 5835 5836 5838 5839 5841 5842 5843 5844 5845 5846 5847 5849 5850 5851 5852 5853 5854
5790 5789 5789 5790 5791 5792 5792 5793 5793 5794 5795 5796 5797 5798 5799 5800 5801 5801 5802 5803 5805 5808 5810 5812 5814 5817 5819 5821 5823 5825 5827 5829 5831 5833 5834 5836 5838 5839 5840 5841 5843 5844 5845 5847 5848 5849 5850 5851 5852
5783 5782 5782 5783 5783 5784 5784 5785 5785 5786 5788 5789 5789 5791 5791 5793 5794 5795 5796 5797 5798 5800 5803 5805 5808 5810 5813 5815 5817 5820 5822 5824 5827 5828 5831 5832 5834 5836 5837 5839 5840 5841 5843 5844 5845 5846 5848 5849 5850
5775 5775 5774 5774 5774 5776 5776 5776 5777 5778 5780 5782 5782 5783 5784 5785 5786 5787 5788 5789 5791 5793 5795 5798 5800 5803 5806 5809 5812 5814 5817 5819 5822 5824 5826 5828 5830 5832 5834 5835 5837 5838 5840 5841 5842 5844 5845 5846 5847
5767 5768 5767 5767 5767 5767 5767 5768 5768 5769 5771 5773 5773 5774 5776 5777 5778 5779 5780 5782 5783 5785 5787 5790 5793 5795 5799 5802 5805 5808 5811 5814 5816 5819 5821 5824 5826 5828 5830 5832 5833 5835 5836 5838 5839 5841 5842 5844 5845
5760 5759 5760 5759 5758 5758 5758 5759 5759 5760 5762 5764 5765 5765 5766 5768 5769 5770 5772 5773 5775 5777 5779 5782 5785 5788 5791 5794 5798 5801 5804 5807 5810 5813 5816 5818 5821 5823 5825 5827 5829 5831 5833 5834 5836 5837 5839 5840 5842
5751 5751 5751 5750 5749 5748 5749 5749 5749 5750 5752 5754 5755 5755 5756 5758 5759 5761 5762 5765 5767 5769 5771 5773 5776 5779 5782 5786 5790 5793 5797 5801 5804 5807 5810 5813 5815 5818 5820 5822 5824 5826 5828 5830 5832 5834 5835 5837 5838
5742 5742 5741 5741 5739 5739 5738 5738 5738 5739 5742 5742 5743 5743 5745 5747 5749 5750 5753 5755 5758 5760 5762 5765 5767 5770 5774 5777 5781 5785 5789 5793 5797 5801 5804 5807 5810 5812 5814 5817 5819 5822 5824 5826 5827 5829 5831 5833 5834
5733 5733 5731 5730 5730 5729 5727 5727 5727 5728 5729 5730 5731 5732 5734 5735 5737 5740 5743 5745 5748 5750 5752 5755 5758 5761 5765 5768 5772 5777 5781 5785 5790 5793 5797 5800 5803 5806 5809 5811 5814 5816 5818 5821 5823 5825 5827 5829 5830
5723 5722 5721 5720 5719 5718 5717 5717 5717 5718 5718 5718 5719 5721 5722 5724 5727 5730 5732 5735 5737 5740 5742 5745 5748 5752 5755 5759 5763 5768 5772 5777 5781 5785 5789 5793 5796 5800 5802 5805 5808 5810 5813 5815 5817 5819 5822 5823 5826
5712 5712 5712 5711 5709 5708 5706 5706 5708 5708 5707 5707 5708 5709 5711 5713 5715 5719 5722 5724 5726 5729 5731 5734 5737 5741 5745 5749 5753 5758 5763 5767 5772 5776 5780 5785 5788 5792 5795 5798 5801 5803 5806 5808 5811 5814 5816 5818 5820
5702 5701 5701 5702 5700 5697 5696 5696 5699 5697 5697 5697 5698 5699 5701 5703 5706 5709 5711 5713 5715 5717 5720 5723 5726 5730 5734 5739 5743 5748 5753 5758 5763 5767 5772 5776 5780 5784 5788 5791 5794 5796 5799 5802 5804 5807 5810 5812 5814
5693 5692 5691 5691 5690 5687 5686 5687 5688 5687 5687 5687 5688 5689 5691 5693 5696 5698 5701 5703 5704 5706 5709 5711 5715 5719 5724 5728 5733 5738 5743 5748 5753 5757 5762 5766 5771 5775 5779 5783 5786 5789 5791 5794 5797 5800 5803 5805 5807
5684 5682 5681 5680 5680 5677 5676 5677 5678 5678 5677 5678 5678 5679 5680 5683 5686 5689 5691 5692 5694 5696 5698 5701 5704 5708 5712 5717 5722 5728 5733 5738 5742 5748 5752 5757 5761 5765 5770 5774 5777 5779 5783 5786 5789 5792 5795 5797 5800
5675 5673 5671 5671 5670 5668 5667 5668 5669 5669 5668 5668 5668 5669 5670 5673 5676 5678 5680 5682 5684 5686 5688 5690 5693 5697 5701 5706 5711 5717 5722 5727 5732 5738 5742 5747 5751 5755 5760 5764 5768 5771 5774 5777 5780 5784 5786 5789 5792
5666 5663 5662 5662 5660 5659 5658 5659 5660 5660 5659 5659 5659 5660 5661 5664 5666 5669 5671 5672 5674 5676 5679 5681 5684 5687 5691 5695 5700 5706 5712 5717 5722 5727 5732 5737 5741 5745 5750 5754 5758 5761 5765 5768 5771 5775 5778 5781 5784
5658 5655 5654 5652 5652 5650 5649 5650 5650 5650 5649 5649 5650 5650 5651 5654 5656 5658 5660 5662 5663 5666 5669 5672 5675 5678 5681 5685 5689 5694 5700 5706 5711 5716 5721 5726 5730 5735 5740 5743 5748 5752 5755 5759 5762 5765 5769 5772 5775
5650 5648 5645 5643 5642 5642 5640 5638 5641 5640 5640 5640 5640 5641 5641 5643 5645 5648 5650 5652 5654 5656 5659 5662 5665 5668 5671 5674 5678 5683 5688 5694 5699 5704 5710 5715 5719 5724 5728 5733 5737 5741 5746 5749 5753 5756 5759 5762 5765
5642 5640 5637 5635 5633 5633 5633 5630 5632 5631 5631 5631 5631 5631 5631 5633 5634 5637 5639 5642 5644 5646 5648 5651 5654 5657 5660 5663 5667 5671 5676 5681 5687 5692 5698 5703 5708 5713 5718 5722 5727 5731 5735 5739 5743 5746 5749 5752 5756
5633 5632 5630 5627 5625 5625 5626 5623 5623 5622 5622 5622 5622 5622 5622 5623 5625 5626 5629 5631 5633 5635 5637 5640 5643 5646 5649 5652 5655 5659 5664 5669 5674 5680 5685 5691 5697 5702 5707 5711 5716 5720 5724 5728 5732 5735 5739 5742 5746
5626 5624 5622 5619 5617 5617 5618 5616 5616 5614 5614 5613 5614 5614 5614 5615 5616 5617 5619 5620 5622 5624 5626 5628 5631 5635 5638 5641 5644 5648 5652 5657 5662 5667 5673 5679 5685 5690 5695 5700 5705 5709 5713 5717 5721 5725 5728 5732 5736
5619 5617 5615 5612 5610 5610 5610 5609 5609 5607 5606 5605 5605 5605 5606 5606 5607 5607 5608 5610 5611 5613 5615 5617 5620 5623 5626 5629 5632 5636 5640 5645 5649 5655 5660 5666 5672 5678 5684 5689 5693 5698 5703 5707 5711 5715 5718 5722 5726
5612 5610 5608 5606 5603 5602 5602 5601 5600 5599 5598 5597 5596 5596 5597 5597 5597 5598 5598 5599 5601 5603 5605 5607 5609 5612 5615 5617 5621 5624 5628 5633 5637 5642 5648 5654 5660 5666 5671 5676 5682 5687 5691 5696 5700 5704 5708 5712 5715
5606 5603 5601 5599 5596 5594 5594 5594 5593 5591 5590 5589 5588 5588 5588 5588 5588 5588 5588 5589 5591 5593 5594 5596 5599 5601 5604 5606 5609 5612 5616 5620 5625 5630 5636 5641 5647 5653 5659 5664 5670 5675 5679 5684 5688 5692 5697 5701 5705
5598 5596 5593 5591 5590 5587 5585 5589 5585 5583 5582 5581 5580 5579 5579 5579 5579 5579 5579 5579 5581 5582 5584 5586 5589 5591 5592 5594 5597 5600 5603 5607 5612 5617 5623 5629 5635 5640 5646 5652 5657 5663 5668 5672 5677 5681 5685 5689 5694
5590 5589 5587 5585 5583 5580 5577 5581 5577 5576 5574 5573 5572 5571 5571 5570 5570 5570 5570 5570 5571 5573 5575 5576 5578 5580 5582 5583 5586 5588 5591 5595 5600 5605 5610 5616 5622 5628 5634 5639 5645 5650 5655 5660 5664 5669 5673 5678 5682